User: anonymous   Login
Location: Mohawk View
(42.7837°N, 73.7885°W)
Time: 15:03:29
(UTC+00:00)
Language:

Cosmos 2151 - Orbit

View from above orbital plane
View from above orbital plane
View from above satellite
View from above satellite

Ground track
Ground track

The orbit data is extracted from the following two-line orbital elements,

1 21422U 91042A   21258.90577241  .00000301  00000-0  26890-4 0  9993
2 21422  82.5019 209.2657 0014918 145.6419 214.5769 14.92297242618733
Epoch (UTC): 15 September 2021 21:44:18
Eccentricity: 0.0014918
inclination: 82.5019°
perigee height: 580 km
apogee height: 601 km
right ascension of ascending node: 209.2657°
argument of perigee: 145.6419°
revolutions per day: 14.92297242
mean anomaly at epoch: 214.5769°
orbit number at epoch: 61873

The dashed part of the orbit path shows where the satellite is in the earth's shadow,  

DLR